Overview Statistics Trail Chart Weather Telemetry Raw packets
 

This is the latest recevied weather packets stored in our database for station/object VK4TOM-13. If no packets are shown the sender has not sent any weather packets the latest 10 day(s).

<< 1 2 3 4 >>
Time Temp. Humidity Pressure Rain* Wind** Luminosity Snow
1788669344 35.56° C 29% 1014.5 hPa 0 mm - - -
1788668743 35° C 30% 1014.6 hPa 0 mm - - -
1788667541 35° C 35% 1014.8 hPa 0 mm - - -
1788666940 34.44° C 37% 1015 hPa 0 mm - - -
1788666339 33.89° C 40% 1015.1 hPa 0 mm - - -
1788665738 33.89° C 43% 1015.3 hPa 0 mm - - -
1788663935 32.78° C 52% 1015.9 hPa 0 mm - - -
1788663334 32.78° C 56% 1016.1 hPa 0 mm - - -
1788662518 32.22° C 59% 1016.5 hPa 0 mm - - -
1788661693 31.11° C 69% 1016.9 hPa 0 mm - - -
1788649077 22.78° C 70% 1020.5 hPa 0 mm - - -
1788648469 22.22° C 70% 1020.6 hPa 0 mm - - -
1788647868 21.67° C 70% 1020.6 hPa 0 mm - - -
1788647267 20.56° C 70% 1020.7 hPa 0 mm - - -
1788646666 20° C 70% 1020.8 hPa 0 mm - - -
1788646064 19.44° C 70% 1020.9 hPa 0 mm - - -
1788645464 18.33° C 70% 1020.9 hPa 0 mm - - -
1788644863 17.78° C 70% 1021 hPa 0 mm - - -
1788644261 17.22° C 70% 1020.6 hPa 0 mm - - -
1788643660 17.22° C 70% 1020.6 hPa 0 mm - - -
1788643059 17.22° C 70% 1020.7 hPa 0 mm - - -
1788642458 16.67° C 70% 1020.6 hPa 0 mm - - -
1788641857 16.67° C 70% 1020.4 hPa 0 mm - - -
1788641256 16.67° C 70% 1020.3 hPa 0 mm - - -
1788640655 16.67° C 70% 1020.1 hPa 0 mm - - -

* Rain since midnight (hover to see other rain measurements)
** Current wind speed in m/s (hover to see current wind gust speed)